SWA3992 KDCA-KMCO

Flight info

Callsign SWA3992
Flight time N/A
Altitude 30000
Route JDUBB4 RRSIN GSO Q83 ROYCO Q85 LPERD SNFLD3
Aircraft B738/M-SDE2E3FGHIRWXY/LB1

Departure

Time 2026-05-03 20:23
Airport Ronald Reagan Washington National Airport (KDCA)

Arrival

Time N/A
Airport Orlando International Airport (KMCO)
Time Latitude Longitude Altitude Speed Heading
2026-05-03 20:15 38.84593 -77.04362 23 ft 0 kts 135°
2026-05-03 20:15 38.84584 -77.04350 23 ft 6 kts 134°
2026-05-03 20:16 38.84564 -77.04299 23 ft 7 kts 99°
2026-05-03 20:16 38.84569 -77.04242 23 ft 6 kts 79°
2026-05-03 20:16 38.84577 -77.04187 26 ft 6 kts 77°
2026-05-03 20:16 38.84585 -77.04142 27 ft 0 kts 78°
2026-05-03 20:18 38.84586 -77.04136 23 ft 4 kts 78°
2026-05-03 20:18 38.84597 -77.04080 27 ft 7 kts 77°
2026-05-03 20:18 38.84579 -77.04025 23 ft 9 kts 155°
2026-05-03 20:18 38.84493 -77.04006 24 ft 13 kts 171°
2026-05-03 20:19 38.84405 -77.03986 30 ft 13 kts 171°
2026-05-03 20:19 38.84343 -77.03955 25 ft 8 kts 138°
2026-05-03 20:19 38.84316 -77.03886 24 ft 9 kts 114°
2026-05-03 20:19 38.84278 -77.03831 24 ft 9 kts 163°
2026-05-03 20:20 38.84235 -77.03808 23 ft 5 kts 137°
2026-05-03 20:20 38.84229 -77.03797 23 ft 0 kts 123°
2026-05-03 20:21 38.84227 -77.03794 23 ft 2 kts 123°
2026-05-03 20:21 38.84206 -77.03754 23 ft 8 kts 123°
2026-05-03 20:21 38.84179 -77.03694 23 ft 6 kts 101°
2026-05-03 20:21 38.84210 -77.03679 26 ft 6 kts 340°
2026-05-03 20:22 38.84221 -77.03682 23 ft 0 kts 352°
2026-05-03 20:22 38.84222 -77.03682 23 ft 1 kts 352°
2026-05-03 20:22 38.84269 -77.03687 23 ft 25 kts 358°
2026-05-03 20:22 38.84726 -77.03733 25 ft 105 kts 355°
2026-05-03 20:23 38.85686 -77.03838 53 ft 167 kts 355°
2026-05-03 20:23 38.86925 -77.03992 683 ft 184 kts 345°
2026-05-03 20:23 38.88081 -77.04726 1466 ft 196 kts 317°
2026-05-03 20:23 38.89125 -77.05950 1946 ft 208 kts 317°
2026-05-03 20:24 38.90118 -77.07281 2513 ft 213 kts 303°
2026-05-03 20:24 38.90842 -77.08982 3032 ft 223 kts 298°
2026-05-03 20:24 38.91726 -77.10754 3407 ft 240 kts 315°
2026-05-03 20:24 38.93101 -77.11964 4142 ft 245 kts 328°
2026-05-03 20:25 38.94578 -77.13078 5001 ft 247 kts 328°
2026-05-03 20:25 38.95985 -77.14331 5821 ft 248 kts 312°
2026-05-03 20:25 38.96888 -77.16219 6630 ft 250 kts 290°
2026-05-03 20:25 38.97322 -77.18402 7403 ft 256 kts 282°
2026-05-03 20:26 38.97645 -77.20671 8154 ft 260 kts 282°
2026-05-03 20:26 38.97964 -77.22962 8964 ft 261 kts 282°
2026-05-03 20:26 38.97938 -77.25320 9656 ft 271 kts 259°
2026-05-03 20:26 38.97115 -77.27521 10431 ft 282 kts 237°
2026-05-03 20:27 38.95550 -77.29225 10670 ft 314 kts 212°
2026-05-03 20:27 38.93459 -77.30387 10871 ft 340 kts 206°
2026-05-03 20:27 38.91184 -77.31504 11041 ft 361 kts 205°
2026-05-03 20:27 38.88759 -77.32661 11193 ft 382 kts 205°
2026-05-03 20:28 38.86216 -77.33870 11546 ft 394 kts 205°
2026-05-03 20:28 38.83632 -77.35112 12123 ft 399 kts 205°
2026-05-03 20:28 38.81015 -77.36379 12735 ft 403 kts 206°
2026-05-03 20:28 38.78423 -77.37645 13327 ft 406 kts 206°
2026-05-03 20:29 38.75767 -77.38950 13914 ft 410 kts 206°
2026-05-03 20:29 38.73091 -77.40268 14520 ft 413 kts 206°
2026-05-03 20:29 38.70398 -77.41597 15078 ft 416 kts 206°
2026-05-03 20:29 38.67692 -77.42931 15654 ft 419 kts 207°
2026-05-03 20:30 38.64965 -77.44273 16180 ft 422 kts 207°
2026-05-03 20:30 38.62209 -77.45629 16703 ft 425 kts 207°
2026-05-03 20:30 38.59430 -77.46993 17174 ft 430 kts 207°
2026-05-03 20:30 38.56625 -77.48371 17645 ft 433 kts 207°
2026-05-03 20:31 38.53804 -77.49755 18157 ft 436 kts 207°
2026-05-03 20:31 38.50961 -77.51148 18644 ft 438 kts 207°
2026-05-03 20:31 38.48112 -77.52542 19145 ft 440 kts 207°
2026-05-03 20:31 38.45247 -77.53944 19622 ft 442 kts 207°
2026-05-03 20:32 38.42364 -77.55354 20083 ft 444 kts 207°
2026-05-03 20:32 38.39493 -77.56808 20543 ft 442 kts 212°
2026-05-03 20:32 38.36893 -77.58813 20960 ft 435 kts 223°
2026-05-03 20:32 38.34450 -77.61100 21351 ft 437 kts 222°
2026-05-03 20:33 38.31952 -77.63330 21752 ft 440 kts 221°
2026-05-03 20:33 38.29415 -77.65534 22151 ft 441 kts 222°
2026-05-03 20:33 38.26999 -77.67910 22553 ft 438 kts 226°
2026-05-03 20:33 38.24678 -77.70427 22951 ft 438 kts 227°
2026-05-03 20:34 38.22405 -77.72962 23317 ft 439 kts 228°
2026-05-03 20:34 38.20093 -77.75527 23643 ft 442 kts 227°
2026-05-03 20:34 38.17761 -77.78078 23997 ft 443 kts 227°
2026-05-03 20:34 38.15402 -77.80624 24317 ft 445 kts 227°
2026-05-03 20:35 38.13025 -77.83167 24670 ft 446 kts 227°
2026-05-03 20:35 38.10645 -77.85704 24973 ft 448 kts 227°
2026-05-03 20:35 38.08260 -77.88244 25284 ft 448 kts 227°
2026-05-03 20:35 38.05866 -77.90794 25629 ft 448 kts 227°
2026-05-03 20:36 38.03485 -77.93326 26137 ft 445 kts 227°
2026-05-03 20:36 38.01123 -77.95834 26651 ft 441 kts 227°
2026-05-03 20:36 37.98781 -77.98318 27098 ft 438 kts 227°
2026-05-03 20:36 37.96449 -78.00794 27509 ft 436 kts 227°
2026-05-03 20:37 37.94122 -78.03263 27901 ft 435 kts 227°
2026-05-03 20:37 37.91806 -78.05717 28341 ft 432 kts 227°
2026-05-03 20:37 37.89508 -78.08151 28775 ft 429 kts 227°
2026-05-03 20:37 37.87254 -78.10536 29177 ft 427 kts 227°
2026-05-03 20:38 37.84985 -78.12935 29636 ft 423 kts 227°
2026-05-03 20:38 37.83073 -78.14955 29979 ft 421 kts 227°